Time,TemperatureF,DewpointF,PressureIn,WindDirection,WindDirectionDegrees,WindSpeedMPH,WindSpeedGustMPH,Humidity,HourlyPrecipIn,Conditions,Clouds,dailyrainin,SolarRadiationWatts/m^2,SoftwareType,DateUTC
2013-01-25 00:02:00,22.0,15.0,-100.00,East,84,0.0,3.0,73,0.00,,,0.00,0.000000,,2013-01-25 07:02:00,
2013-01-25 00:11:00,22.0,15.0,-100.00,East,84,0.0,3.0,73,0.00,,,0.00,0.000000,,2013-01-25 07:11:00,
2013-01-25 00:21:00,22.0,15.0,-100.00,East,84,0.0,3.0,73,0.00,,,0.00,0.000000,,2013-01-25 07:21:00,
2013-01-25 00:32:00,22.0,15.0,-100.00,East,84,0.0,3.0,73,0.00,,,0.00,0.000000,,2013-01-25 07:32:00,
2013-01-25 01:02:00,21.0,15.0,-100.00,SSE,162,1.0,4.0,77,0.00,,,0.00,0.000000,,2013-01-25 08:02:00,
2013-01-25 01:11:00,21.0,15.0,-100.00,SSE,162,1.0,4.0,77,0.00,,,0.00,0.000000,,2013-01-25 08:11:00,
2013-01-25 01:21:00,21.0,15.0,-100.00,SSE,162,1.0,4.0,77,0.00,,,0.00,0.000000,,2013-01-25 08:21:00,
2013-01-25 01:32:00,21.0,15.0,-100.00,SSE,162,1.0,4.0,77,0.00,,,0.00,0.000000,,2013-01-25 08:32:00,
2013-01-25 02:02:00,22.0,16.0,-100.00,West,262,0.0,4.0,77,0.00,,,0.00,0.000000,,2013-01-25 09:02:00,
2013-01-25 02:11:00,22.0,16.0,-100.00,West,262,0.0,4.0,77,0.00,,,0.00,0.000000,,2013-01-25 09:11:00,
2013-01-25 02:21:00,22.0,16.0,-100.00,West,262,0.0,4.0,77,0.00,,,0.00,0.000000,,2013-01-25 09:21:00,
2013-01-25 02:31:00,22.0,16.0,-100.00,West,262,0.0,4.0,77,0.00,,,0.00,0.000000,,2013-01-25 09:31:00,
2013-01-25 03:02:00,23.0,17.0,-100.00,SW,235,1.0,5.0,76,0.00,,,0.00,0.000000,,2013-01-25 10:02:00,
2013-01-25 03:12:00,23.0,17.0,-100.00,SW,235,1.0,5.0,76,0.00,,,0.00,0.000000,,2013-01-25 10:12:00,
2013-01-25 03:21:00,23.0,17.0,-100.00,SW,235,1.0,5.0,76,0.00,,,0.00,0.000000,,2013-01-25 10:21:00,
2013-01-25 03:32:00,23.0,17.0,-100.00,SW,235,1.0,5.0,76,0.00,,,0.00,0.000000,,2013-01-25 10:32:00,
2013-01-25 03:52:00,21.0,15.0,-100.00,North,2,0.0,3.0,76,0.00,,,0.00,0.000000,,2013-01-25 10:52:00,
2013-01-25 04:02:00,21.0,15.0,-100.00,North,2,0.0,3.0,76,0.00,,,0.00,0.000000,,2013-01-25 11:02:00,
2013-01-25 04:11:00,21.0,15.0,-100.00,North,2,0.0,3.0,76,0.00,,,0.00,0.000000,,2013-01-25 11:11:00,
2013-01-25 04:22:00,21.0,15.0,-100.00,North,2,0.0,3.0,76,0.00,,,0.00,0.000000,,2013-01-25 11:22:00,
2013-01-25 04:32:00,21.0,15.0,-100.00,North,2,0.0,3.0,76,0.00,,,0.00,0.000000,,2013-01-25 11:32:00,
2013-01-25 04:52:00,19.0,14.0,-100.00,NNE,26,1.0,3.0,82,0.00,,,0.00,0.000000,,2013-01-25 11:52:00,
2013-01-25 05:02:00,19.0,14.0,-100.00,NNE,26,1.0,3.0,82,0.00,,,0.00,0.000000,,2013-01-25 12:02:00,
2013-01-25 05:11:00,19.0,14.0,-100.00,NNE,26,1.0,3.0,82,0.00,,,0.00,0.000000,,2013-01-25 12:11:00,
2013-01-25 05:22:00,19.0,14.0,-100.00,NNE,26,1.0,3.0,82,0.00,,,0.00,0.000000,,2013-01-25 12:22:00,
2013-01-25 05:32:00,19.0,14.0,-100.00,NNE,26,1.0,3.0,82,0.00,,,0.00,0.000000,,2013-01-25 12:32:00,
2013-01-25 05:53:00,15.0,12.0,-100.00,NNE,16,3.0,4.0,87,0.00,,,0.00,0.000000,,2013-01-25 12:53:00,
2013-01-25 06:02:00,15.0,12.0,-100.00,NNE,16,3.0,4.0,87,0.00,,,0.00,0.000000,,2013-01-25 13:02:00,
2013-01-25 06:12:00,15.0,12.0,-100.00,NNE,16,3.0,4.0,87,0.00,,,0.00,0.000000,,2013-01-25 13:12:00,
2013-01-25 06:22:00,15.0,12.0,-100.00,NNE,16,3.0,4.0,87,0.00,,,0.00,0.000000,,2013-01-25 13:22:00,
2013-01-25 06:32:00,15.0,12.0,-100.00,NNE,16,3.0,4.0,87,0.00,,,0.00,0.000000,,2013-01-25 13:32:00,
2013-01-25 07:03:00,13.0,10.0,-100.00,NNE,26,2.0,4.0,86,0.00,,,0.00,0.000000,,2013-01-25 14:03:00,
2013-01-25 07:12:00,13.0,10.0,-100.00,NNE,26,2.0,4.0,86,0.00,,,0.00,0.000000,,2013-01-25 14:12:00,
2013-01-25 07:23:00,13.0,10.0,-100.00,NNE,26,2.0,4.0,86,0.00,,,0.00,0.000000,,2013-01-25 14:23:00,
2013-01-25 07:32:00,13.0,10.0,-100.00,NNE,26,2.0,4.0,86,0.00,,,0.00,0.000000,,2013-01-25 14:32:00,
2013-01-25 08:02:00,13.0,9.0,-100.00,NNE,25,1.0,4.0,85,0.00,,,0.00,3.000000,,2013-01-25 15:02:00,
2013-01-25 08:12:00,13.0,9.0,-100.00,NNE,25,1.0,4.0,85,0.00,,,0.00,3.000000,,2013-01-25 15:12:00,
2013-01-25 08:22:00,13.0,9.0,-100.00,NNE,25,1.0,4.0,85,0.00,,,0.00,3.000000,,2013-01-25 15:22:00,
2013-01-25 08:32:00,13.0,9.0,-100.00,NNE,25,1.0,4.0,85,0.00,,,0.00,3.000000,,2013-01-25 15:32:00,
2013-01-25 09:03:00,18.0,13.0,-100.00,NNE,20,3.0,3.0,80,0.00,,,0.00,77.000000,,2013-01-25 16:03:00,
2013-01-25 09:12:00,18.0,13.0,-100.00,NNE,20,3.0,3.0,80,0.00,,,0.00,77.000000,,2013-01-25 16:12:00,
2013-01-25 09:22:00,18.0,13.0,-100.00,NNE,20,3.0,3.0,80,0.00,,,0.00,77.000000,,2013-01-25 16:22:00,
2013-01-25 09:32:00,18.0,13.0,-100.00,NNE,20,3.0,3.0,80,0.00,,,0.00,77.000000,,2013-01-25 16:32:00,
2013-01-25 10:02:00,33.0,21.0,-100.00,SE,138,1.0,3.0,62,0.00,,,0.00,249.000000,,2013-01-25 17:02:00,
2013-01-25 10:12:00,33.0,21.0,-100.00,SE,138,1.0,3.0,62,0.00,,,0.00,249.000000,,2013-01-25 17:12:00,
2013-01-25 10:22:00,33.0,21.0,-100.00,SE,138,1.0,3.0,62,0.00,,,0.00,249.000000,,2013-01-25 17:22:00,
2013-01-25 10:32:00,33.0,21.0,-100.00,SE,138,1.0,3.0,62,0.00,,,0.00,249.000000,,2013-01-25 17:32:00,
2013-01-25 11:03:00,43.0,16.0,-100.00,WSW,250,2.0,6.0,33,0.00,,,0.00,411.000000,,2013-01-25 18:03:00,
2013-01-25 11:12:00,43.0,16.0,-100.00,WSW,250,2.0,6.0,33,0.00,,,0.00,411.000000,,2013-01-25 18:12:00,
2013-01-25 11:23:00,43.0,16.0,-100.00,WSW,250,2.0,6.0,33,0.00,,,0.00,411.000000,,2013-01-25 18:23:00,
2013-01-25 11:33:00,43.0,16.0,-100.00,WSW,250,2.0,6.0,33,0.00,,,0.00,411.000000,,2013-01-25 18:33:00,
2013-01-25 12:03:00,44.0,10.0,-100.00,NW,305,7.0,13.0,25,0.00,,,0.00,516.000000,,2013-01-25 19:03:00,
2013-01-25 12:12:00,44.0,10.0,-100.00,NW,305,7.0,13.0,25,0.00,,,0.00,516.000000,,2013-01-25 19:12:00,
2013-01-25 12:22:00,44.0,10.0,-100.00,NW,305,7.0,13.0,25,0.00,,,0.00,516.000000,,2013-01-25 19:22:00,
2013-01-25 12:32:00,44.0,10.0,-100.00,NW,305,7.0,13.0,25,0.00,,,0.00,516.000000,,2013-01-25 19:32:00,
2013-01-25 13:03:00,40.0,18.0,-100.00,SSW,210,5.0,15.0,41,0.00,,,-99.99,468.000000,,2013-01-25 20:03:00,
2013-01-25 13:12:00,40.0,18.0,-100.00,SSW,210,5.0,15.0,41,0.00,,,-99.99,468.000000,,2013-01-25 20:12:00,
2013-01-25 13:22:00,40.0,18.0,-100.00,SSW,210,5.0,15.0,41,0.00,,,-99.99,468.000000,,2013-01-25 20:22:00,
2013-01-25 13:32:00,40.0,18.0,-100.00,SSW,210,5.0,15.0,41,0.00,,,-99.99,468.000000,,2013-01-25 20:32:00,
2013-01-25 14:02:00,41.0,14.0,-100.00,WNW,299,5.0,9.0,33,0.00,,,0.00,372.000000,,2013-01-25 21:02:00,
2013-01-25 14:12:00,41.0,14.0,-100.00,WNW,299,5.0,9.0,33,0.00,,,0.00,372.000000,,2013-01-25 21:12:00,
2013-01-25 14:23:00,41.0,14.0,-100.00,WNW,299,5.0,9.0,33,0.00,,,0.00,372.000000,,2013-01-25 21:23:00,
2013-01-25 14:32:00,41.0,14.0,-100.00,WNW,299,5.0,9.0,33,0.00,,,0.00,372.000000,,2013-01-25 21:32:00,
2013-01-25 15:03:00,41.0,13.0,-100.00,WNW,298,4.0,10.0,31,0.00,,,0.00,317.000000,,2013-01-25 22:03:00,
2013-01-25 15:12:00,41.0,13.0,-100.00,WNW,298,4.0,10.0,31,0.00,,,0.00,317.000000,,2013-01-25 22:12:00,
2013-01-25 15:22:00,41.0,13.0,-100.00,WNW,298,4.0,10.0,31,0.00,,,0.00,317.000000,,2013-01-25 22:22:00,
2013-01-25 15:32:00,41.0,13.0,-100.00,WNW,298,4.0,10.0,31,0.00,,,0.00,317.000000,,2013-01-25 22:32:00,
2013-01-25 16:02:00,40.0,14.0,-100.00,SW,230,4.0,10.0,34,0.00,,,0.00,208.000000,,2013-01-25 23:02:00,
2013-01-25 16:12:00,40.0,14.0,-100.00,SW,230,4.0,10.0,34,0.00,,,0.00,208.000000,,2013-01-25 23:12:00,
2013-01-25 16:22:00,40.0,14.0,-100.00,SW,230,4.0,10.0,34,0.00,,,0.00,208.000000,,2013-01-25 23:22:00,
2013-01-25 16:32:00,40.0,14.0,-100.00,SW,230,4.0,10.0,34,0.00,,,0.00,208.000000,,2013-01-25 23:32:00,
2013-01-25 17:02:00,37.0,11.0,-100.00,SW,227,1.0,6.0,33,0.00,,,0.00,111.000000,,2013-01-26 00:02:00,
2013-01-25 17:11:00,37.0,11.0,-100.00,SW,227,1.0,6.0,33,0.00,,,0.00,111.000000,,2013-01-26 00:11:00,
2013-01-25 17:22:00,37.0,11.0,-100.00,SW,227,1.0,6.0,33,0.00,,,0.00,111.000000,,2013-01-26 00:22:00,
2013-01-25 17:32:00,37.0,11.0,-100.00,SW,227,1.0,6.0,33,0.00,,,0.00,111.000000,,2013-01-26 00:32:00,
2013-01-25 17:53:00,29.0,11.0,-100.00,NNE,19,1.0,2.0,47,0.00,,,0.00,5.000000,,2013-01-26 00:53:00,
2013-01-25 18:02:00,29.0,11.0,-100.00,NNE,19,1.0,2.0,47,0.00,,,0.00,5.000000,,2013-01-26 01:02:00,
2013-01-25 18:11:00,29.0,11.0,-100.00,NNE,19,1.0,2.0,47,0.00,,,0.00,5.000000,,2013-01-26 01:11:00,
2013-01-25 18:22:00,29.0,11.0,-100.00,NNE,19,1.0,2.0,47,0.00,,,0.00,5.000000,,2013-01-26 01:22:00,
2013-01-25 18:32:00,29.0,11.0,-100.00,NNE,19,1.0,2.0,47,0.00,,,0.00,5.000000,,2013-01-26 01:32:00,
2013-01-25 19:01:00,24.0,10.0,-100.00,NE,40,1.0,4.0,55,0.00,,,0.00,0.000000,,2013-01-26 02:01:00,
2013-01-25 19:11:00,24.0,10.0,-100.00,NE,40,1.0,4.0,55,0.00,,,0.00,0.000000,,2013-01-26 02:11:00,
2013-01-25 19:22:00,24.0,10.0,-100.00,NE,40,1.0,4.0,55,0.00,,,0.00,0.000000,,2013-01-26 02:22:00,
2013-01-25 19:32:00,24.0,10.0,-100.00,NE,40,1.0,4.0,55,0.00,,,0.00,0.000000,,2013-01-26 02:32:00,
2013-01-25 19:52:00,21.0,9.0,-100.00,NE,56,1.0,4.0,58,0.00,,,0.00,0.000000,,2013-01-26 02:52:00,
2013-01-25 20:02:00,21.0,9.0,-100.00,NE,56,1.0,4.0,58,0.00,,,0.00,0.000000,,2013-01-26 03:02:00,
2013-01-25 20:11:00,21.0,9.0,-100.00,NE,56,1.0,4.0,58,0.00,,,0.00,0.000000,,2013-01-26 03:11:00,
2013-01-25 20:22:00,21.0,9.0,-100.00,NE,56,1.0,4.0,58,0.00,,,0.00,0.000000,,2013-01-26 03:22:00,
2013-01-25 20:31:00,21.0,9.0,-100.00,NE,56,1.0,4.0,58,0.00,,,0.00,0.000000,,2013-01-26 03:31:00,
2013-01-25 21:02:00,21.0,9.0,-100.00,NNE,14,2.0,3.0,60,0.00,,,0.00,0.000000,,2013-01-26 04:02:00,
2013-01-25 21:12:00,21.0,9.0,-100.00,NNE,14,2.0,3.0,60,0.00,,,0.00,0.000000,,2013-01-26 04:12:00,
2013-01-25 21:21:00,21.0,9.0,-100.00,NNE,14,2.0,3.0,60,0.00,,,0.00,0.000000,,2013-01-26 04:21:00,
2013-01-25 21:32:00,21.0,9.0,-100.00,NNE,14,2.0,3.0,60,0.00,,,0.00,0.000000,,2013-01-26 04:32:00,
2013-01-25 22:03:00,26.0,11.0,-100.00,SSE,168,2.0,4.0,53,0.00,,,0.00,0.000000,,2013-01-26 05:03:00,
2013-01-25 22:12:00,26.0,11.0,-100.00,SSE,168,2.0,4.0,53,0.00,,,0.00,0.000000,,2013-01-26 05:12:00,
2013-01-25 22:23:00,26.0,11.0,-100.00,SSE,168,2.0,4.0,53,0.00,,,0.00,0.000000,,2013-01-26 05:23:00,
2013-01-25 22:33:00,26.0,11.0,-100.00,SSE,168,2.0,4.0,53,0.00,,,0.00,0.000000,,2013-01-26 05:33:00,
2013-01-25 23:02:00,26.0,14.0,-100.00,South,190,3.0,6.0,60,0.00,,,0.00,0.000000,,2013-01-26 06:02:00,
2013-01-25 23:12:00,26.0,14.0,-100.00,South,190,3.0,6.0,60,0.00,,,0.00,0.000000,,2013-01-26 06:12:00,
2013-01-25 23:21:00,26.0,14.0,-100.00,South,190,3.0,6.0,60,0.00,,,0.00,0.000000,,2013-01-26 06:21:00,
2013-01-25 23:31:00,26.0,14.0,-100.00,South,190,3.0,6.0,60,0.00,,,0.00,0.000000,,2013-01-26 06:31:00,